Regional Weather Roundup
Issued by NWS Northern Indiana

Home | Current Version | Previous Version | Text Only | Print | Product List | Glossary Off
Versions: 1 2 3 4 5 6 7 8 9 10 11 12 13 14 15 16 17 18 19 20 21 22 23 24 25 26 27 28 29 30 31 32 33 34 35 36 37 38 39 40 41 42 43 44 45 46 47 48 49 50

000
ASUS43 KIWX 272310
RWRIWX

KIWX WEATHER ROUNDUP
NATIONAL WEATHER SERVICE NORTHERN INDIANA
700 PM EDT THU AUG 27 2015

NOTE: "FAIR" INDICATES FEW OR NO CLOUDS BELOW 12,000 FEET WITH NO
SIGNIFICANT WEATHER AND/OR OBSTRUCTIONS TO VISIBILITY.

* THESE STATIONS ARE NOT UNDER NWS QUALITY CONTROL. THEY ALSO MAY NOT
  REPORT WEATHER SUCH AS PRECIPITATION OR FOG.

INZ001>027-280000-
NORTHERN INDIANA

CITY           SKY/WX    TMP DP  RH WIND       PRES   REMARKS
GARY*          PTSUNNY   72  54  53 NE6       30.15S
VALPARAISO     SUNNY     70  57  63 NE3       30.15S
MICHIGAN CITY* SUNNY     66  54  63 N5        30.15S
LAPORTE*       MOSUNNY   70  57  64 E3        30.16S
KNOX*          SUNNY     72  52  49 CALM      30.14R
SOUTH BEND     CLOUDY    68  54  60 E6        30.15F
ELKHART*       MOSUNNY   70  54  56 SE5       30.16F
GOSHEN         MOSUNNY   70  55  59 NE5       30.15F
MONTICELLO*    MOSUNNY   73  60  63 NE3       30.13R
LOGANSPORT*    SUNNY     72  52  49 CALM      30.14S
ROCHESTER*     MOSUNNY   73  57  56 NE3       30.14S
WARSAW*        MOSUNNY   70  55  60 NE5       30.15S
ANGOLA*        CLOUDY    68  61  77 CALM      30.17S
FORT WAYNE     MOSUNNY   72  54  53 CALM      30.15F
HUNTINGTON*    MOSUNNY   71  53  52 NE5       30.15S
PERU/GRISSOM   SUNNY     73  57  58 E1        30.13S
MARION*        SUNNY     73  45  36 CALM      30.14F

$$
INZ028>050-280000-
CENTRAL INDIANA

CITY           SKY/WX    TMP DP  RH WIND       PRES   REMARKS
LAFAYETTE      CLOUDY    75  57  53 NE6       30.12R
KOKOMO*        SUNNY     72  55  56 E3        30.13F
MUNCIE*        SUNNY     72  56  57 NE5       30.14F
INDIANAPOLIS   MOSUNNY   76  55  48 S6        30.10F

$$
MIZ043>046-050>051-056>058-064>065-071>073-077>080-280000-
SOUTHWEST LOWER MICHIGAN

CITY           SKY/WX    TMP DP  RH WIND       PRES   REMARKS
BATTLE CREEK   CLOUDY    68  54  60 SE3       30.17F
BENTON HARBOR  SUNNY     67  56  67 NW3       30.14F
COLDWATER*     CLOUDY    66  55  68 NE3       30.17F
HILLSDALE*     CLOUDY    67  57  68 N3        30.18S
HOLLAND        SUNNY     69  58  67 W6        30.16F
GRAND RAPIDS   PTSUNNY   69  55  60 S5        30.16S
KALAMAZOO      MOSUNNY   69  55  60 VRB3      30.16F
STURGIS*       PTSUNNY   64  59  82 E3        30.16F
THREE RIVERS*  CLOUDY    68  55  64 CALM      30.16F

$$
OHZ001>008-015>018-024>025-280000-
NORTHWEST OHIO

CITY           SKY/WX    TMP DP  RH WIND       PRES   REMARKS
WAUSEON*       FAIR      70  57  64 NE3       30.17S
DEFIANCE       MOSUNNY   71  57  61 N5        30.16S
FINDLAY        SUNNY     74  55  51 N7        30.15S
TOLEDO EXPRESS SUNNY     69  54  58 N7        30.16S
TOLEDO METCALF SUNNY     69  54  58 NE5       30.18S
LIMA           MOSUNNY   70  57  63 CALM      30.16S

$$
AND FOR LAKE MICHIGAN COASTAL AND OPEN LAKE BUOY OBSERVATIONS

STATION/POSITION TEMP    WIND        PRES    VSBY  WAVE
                 AIR SEA DIR/SP/G                  HT/PER
                 (F)     (DEG/KT/KT) (MB)    (MI)  (FT/S)
CALUMET HARBOR    67      50/  6/  9   N/A
MICHIGAN CITY     69     320/  4/  5   N/A
BURNS HARBOR      69      50/  7/  8 1021.0F
SAINT JOSEPH      67     320/  4/  6 1021.7R
SOUTH LAKE BUOY   65 69  200/  6/  6 1020.9F         1
4 MI NW BRIDGMAN  67 72   10/  4/  6   N/A           1
MICHIGAN CITY     68 72   CALM  /  2   N/A           0

$$
&&


USA.gov is the U.S. government's official web portal to all federal, state and local government web resources and services.